Location: Amethi
(20.9992°N, 82.2104°E)
Time: 14:35:31
(UTC+00:00)

Daily predictions for brighter satellites

Satellite Brightness Start Highest point End
(mag) Time Altitude Azimuth Time Altitude Azimuth Time Altitude Azimuth
Atlas Centaur 2 3.0 13:31:46 10° W 13:36:25 46° NNW 13:42:21 10° ENE
Meteor 1-24 Rocket 4.0 13:32:13 10° SSE 13:37:42 51° E 13:43:23 10° NNE
Cosmos 2082 3.8 13:32:32 10° N 13:38:05 64° ENE 13:43:38 10° SSE
Cosmos 2227 Rocket 2.8 13:35:22 10° NNW 13:40:55 59° WSW 13:46:26 10° S
Cosmos 2360 Rocket 3.4 13:39:07 10° SSE 13:43:13 21° ESE 13:47:20 10° NE
Cosmos 1553 Rocket 4.2 13:37:43 10° N 13:43:46 78° W 13:49:53 10° S
Delta 142 3.7 13:39:12 10° WNW 13:44:34 89° NNE 13:48:54 10° ESE
Cosmos 1437 4.0 13:46:54 10° SSW 13:49:45 41° W 13:52:36 10° N
Cosmos 2263 Rocket 4.0 13:47:16 10° NE 13:50:05 14° ENE 13:52:54 10° E
S3M 4.1 13:44:45 10° N 13:51:10 84° E 13:57:33 10° S
DELTA 2 R/B (1) 3.7 13:46:00 10° SW 13:51:22 51° SE 13:56:45 10° ENE
SJ-11-01 4.3 13:48:26 10° SSE 13:53:04 69° ENE 13:57:41 10° N
HJ-1C 3.3 13:50:02 10° SSE 13:53:20 89° E 13:56:40 10° N
CZ-2C R/B 4.4 13:56:36 10° NNE 14:00:57 36° E 14:05:18 10° SSE
SL-16 R/B 2.3 13:55:44 10° SSW 14:01:23 84° WNW 14:07:04 10° NNE
Cosmos 1726 Rocket 4.0 13:57:11 10° N 14:01:26 43° E 14:05:39 10° SSE
CZ-2C R/B 3.3 13:56:30 10° SSE 14:02:18 81° ENE 14:07:57 10° N
Cosmos 1818 3.7 13:57:27 10° S 14:02:38 50° ESE 14:07:51 10° NE
ARGOS 3.4 13:57:42 10° SSE 14:02:56 53° ENE 14:08:12 10° N
GPS 2-15 Rocket1 3.2 13:58:30 10° W 14:03:26 77° S 14:07:47 13° E
USA 215 3.5 14:02:10 10° NE 14:08:23 46° SE 14:14:34 10° SSW
Meteor 2-14 Rocket 4.5 14:04:02 10° S 14:10:04 61° E 14:16:06 10° NNE
GPS 2-18 Rocket1 3.3 14:07:16 10° WSW 14:10:45 43° SSE 14:12:58 19° ESE
Meteor 2-21 4.4 14:04:39 10° S 14:10:48 69° E 14:16:56 10° N
Cosmos 1626 3.0 14:09:41 10° SSW 14:13:16 51° W 14:16:52 10° N
Cosmos 883 Rocket 4.5 14:07:03 10° N 14:13:17 75° E 14:19:34 10° S
SL-08 RB Rocket 4.0 14:10:06 14° SE 14:13:41 45° ENE 14:17:55 10° N
Cosmos 858 Rocket 4.5 14:09:59 10° NNW 14:15:15 84° ENE 14:20:25 10° SSE
Resurs 01 Rocket 3.7 14:15:25 11° E 14:16:01 11° ENE 14:17:25 10° NE
ATLAS 5 CENTAUR R/B 1.2 14:12:12 10° SSW 14:16:09 66° ESE 14:20:11 10° NNE
CZ-2C R/B 2.5 14:11:05 10° NNE 14:16:24 73° ESE 14:21:35 10° S
ATLAS CENTAUR R/B 4.1 14:16:43 10° NE 14:17:35 11° ENE 14:18:02 10° ENE
Hubble Space Telescope 1.8 14:18:21 10° SSW 14:21:44 24° SSE 14:22:18 24° SE
Cosmos 1244 Rocket 4.4 14:18:53 10° S 14:24:59 76° E 14:31:07 10° N
Cosmos 1898 Rocket 4.4 14:21:18 10° NNW 14:26:17 47° WSW 14:31:12 10° S
GEOS 3 Rocket 3.6 14:23:08 10° NE 14:28:30 67° ESE 14:33:46 10° SSW
Ariane Rocket 3.0 14:28:50 12° S 14:33:37 82° WSW 14:38:43 10° NNW
Cosmos 2058 Rocket 3.0 14:32:15 10° N 14:36:44 75° E 14:39:18 25° SSE
DMSP B5D2-2 4.5 14:32:37 10° N 14:37:45 64° WNW 14:42:52 10° SSW
Cosmos 2227 4.4 14:32:28 10° N 14:38:04 52° ENE 14:40:40 30° SE
MONITOR-E 3.9 14:39:09 57° NNE 14:39:09 57° NNE 14:41:14 10° N
IRS-1A Rocket 4.3 14:34:05 13° S 14:39:09 79° WSW 14:44:39 10° NNW
Cosmos 1626 Rocket 3.5 14:36:03 10° S 14:40:28 89° SW 14:44:56 10° N
Meteor 1-21 Rocket 4.4 14:36:53 17° SSE 14:41:20 54° E 14:47:05 10° NNE
USA 186 3.2 14:41:37 16° SSW 14:43:58 37° W 14:47:05 10° NNW
NOSS 3-1 (C) 4.3 14:36:26 10° NNW 14:44:49 87° WSW 14:51:12 22° SSE
H-2A R/B 3.5 14:41:37 10° SSW 14:46:33 37° W 14:51:34 10° NNW
MOS 1 4.3 14:43:59 18° S 14:48:21 78° WSW 14:54:00 10° NNW
Cosmos 2322 Rocket 3.8 14:43:49 10° SW 14:48:51 34° WNW 14:53:55 10° N
Cosmos 2237 4.5 14:45:14 10° SSW 14:50:54 70° WNW 14:56:37 10° NNE
Resurs 1-3 3.7 14:50:56 47° ESE 14:51:41 54° ENE 14:55:57 10° N
SPOT 3 Rocket 3.6 14:52:29 40° SE 14:54:09 61° ENE 14:59:17 10° N
Timation 1 Rocket 4.5 14:48:31 10° NNW 14:54:26 70° WSW 14:57:52 26° S
H-2A ROCKET BODY 3.4 14:50:43 10° WNW 14:54:48 50° NNE 15:10:22 11° E
Cosmos 1125 Rocket 4.3 14:52:14 10° N 14:56:55 32° ENE 14:57:09 32° ENE
Palapa B4 Rocket 4.3 14:51:13 10° SW 14:58:50 40° S 14:59:37 39° SSE
USA 229 DEB 4.0 14:51:52 10° NNW 14:59:25 78° WSW 15:03:44 29° SSE
USA 229 4.0 14:51:57 10° NNW 14:59:30 79° WSW 15:03:48 30° SSE
NOSS 3-3 (A) 3.6 14:58:39 11° SSW 15:03:56 61° ESE 15:09:44 10° NE
NOSS 3-3 (C) 3.6 15:00:01 18° S 15:04:03 60° ESE 15:09:51 10° NE
Cosmos 2298 Rocket 3.9 15:00:10 10° NNW 15:05:30 82° ENE 15:06:47 53° SSE
COSMOS 2428 3.7 15:09:51 30° ENE 15:09:51 30° ENE 15:13:16 10° NE
NOSS 3-1 (A) 4.2 15:01:31 10° NNW 15:09:57 88° ENE 15:14:09 37° SSE
Cosmos 1709 Rocket 4.3 15:10:25 43° E 15:10:35 43° E 15:16:29 10° NNE
OAO 3 Copernicus 4.1 15:05:44 10° SW 15:10:48 83° SSE 15:11:45 59° ENE
Cosmos 2322 3.6 15:08:40 25° SSW 15:12:10 82° ESE 15:17:54 10° NNE
Geosat 4.2 15:14:15 53° ENE 15:14:25 54° ENE 15:19:18 10° N
Cosmos 1300 4.4 15:11:29 10° NNW 15:14:51 30° W 15:16:03 25° SW
Cosmos 1825 Rocket 4.4 15:19:02 40° NNE 15:19:02 40° NNE 15:22:02 10° NNE
Cosmos 2333 4.2 15:21:02 29° SSW 15:23:58 79° WNW 15:29:38 10° NNE
Cosmos 2219 Rocket 2.3 15:25:53 58° ENE 15:25:53 58° ENE 15:30:35 10° NNE
BREEZE-M (TANK) 4.5 15:27:21 26° NE 15:27:21 26° NE 15:30:34 10° NE
Atlas Centaur 2 3.7 15:21:05 10° WNW 15:26:25 36° N 15:31:05 17° ENE
Nadezhda 1 Rocket 3.9 15:20:22 10° N 15:26:41 64° E 15:27:06 63° ESE
Cosmos 2360 Rocket 3.9 15:21:56 10° SW 15:26:53 32° WNW 15:31:52 10° N
Cosmos 1461 3.9 15:25:25 10° NNW 15:29:03 46° NNE 15:29:03 46° NNE
DELTA-4 R/B 4.3 15:28:40 10° WSW 15:48:30 14° E 15:53:53 10° E
Cosmos 2333 Rocket 2.0 15:33:48 86° SSW 15:33:56 90° ESE 15:39:39 10° NNE
Cosmos 2263 Rocket 2.8 15:28:46 10° NNW 15:34:05 48° WSW 15:35:08 43° SW
Cosmos 1455 4.3 15:30:35 10° N 15:31:59 21° N 15:31:59 21° N
Cosmos 1812 Rocket 4.5 15:33:39 10° N 15:36:39 44° NNW 15:36:39 44° NNW
Meteor 2-1 Rocket 4.3 15:32:58 10° N 15:38:50 75° W 15:39:24 69° SW
BREEZE-M DEB (TANK) 3.9 15:34:34 10° NW 15:40:05 50° NNW 15:40:05 50° NNW
Resurs 01 Rocket 3.1 15:52:59 34° WNW 15:52:59 34° WNW 15:56:11 10° NNW
Milstar 3 Cent rocket 4.3 15:59:51 10° WSW 16:01:44 18° SW 16:01:44 18° SW
Cosmos 1844 Rocket 4.0 16:10:09 10° N 16:13:16 34° N 16:13:16 34° N
Aurora 2 Rocket 4.5 16:12:16 10° WNW 16:22:13 90° SSW 16:23:14 77° ESE
Cosmos 2237 Rocket 4.5 17:09:39 20° N 17:09:39 20° N 17:11:25 10° N
Atlas Centaur 2 4.1 17:10:03 10° WNW 17:13:39 32° NW 17:13:39 32° NW
SL-16 R/B 4.1 20:01:22 30° NNE 20:01:22 30° NNE 20:04:50 10° N
CZ-4C R/B 3.8 20:06:36 10° N 20:14:14 48° ENE 20:15:19 46° E
Resurs 1-4 Rocket 4.4 20:25:19 10° N 20:26:35 17° N 20:26:35 17° N
ADEOS II 3.8 20:36:55 10° NNE 20:39:22 29° NNE 20:39:22 29° NNE
CZ-2D R/B 4.5 20:55:24 10° NNW 20:56:14 13° NNW 20:56:14 13° NNW
Lacrosse 5 4.4 21:09:31 12° NNW 21:09:31 12° NNW 21:10:27 10° NNW
COSMOS 2406 3.7 21:11:38 58° NNE 21:11:38 58° NNE 21:16:12 10° NNE
Cosmos 2082 Rocket 3.2 21:26:00 36° SE 21:26:57 39° ESE 21:32:12 10° NE
Cosmos 407 Rocket 4.3 21:30:42 43° NNW 21:30:42 43° NNW 21:34:34 10° N
IDEFIX/ARIANE 42P 2.6 21:27:37 10° NNE 21:32:32 74° ENE 21:32:32 74° ENE
Meteor 1-11 Rocket 3.6 21:35:02 85° ESE 21:35:03 86° E 21:40:37 10° N
Cosmos 1733 Rocket 3.6 21:39:52 54° NE 21:39:52 54° NE 21:43:22 10° N
Cosmos 2233 Rocket 3.8 21:38:40 69° S 21:39:29 89° E 21:45:40 10° N
Spot 4 Rocket 4.2 21:34:45 10° N 21:39:13 61° NNW 21:39:13 61° NNW
Cosmos 676 Rocket 3.9 21:41:11 81° ESE 21:41:12 81° ESE 21:46:26 10° NNE
Delta 198 3.9 21:43:10 66° N 21:43:10 66° N 21:47:37 10° E
Aureole 1 Rocket 4.4 21:46:23 27° N 21:46:23 27° N 21:48:30 10° N
ARIANE 5 R/B 3.5 21:40:36 10° N 21:44:04 33° NW 21:44:04 33° NW
Cosmos 1536 3.7 21:48:14 44° N 21:48:14 44° N 21:51:04 10° N
Okean 3 3.8 21:44:28 10° N 21:48:22 62° ENE 21:48:22 62° ENE
Cosmos 1833 Rocket 2.6 21:48:45 64° WNW 21:48:49 64° WNW 21:54:23 10° N
Cosmos 1140 Rocket 4.1 21:50:00 43° NW 21:50:00 43° NW 21:54:15 10° N
ATLAS 2A CENTAUR R/B 3.1 21:51:33 19° E 21:51:33 19° E 21:53:09 10° E
Cosmos 2221 Rocket 4.1 21:46:16 10° N 21:50:36 56° E 21:51:26 47° SE
Cosmos 1900 4.3 22:01:03 58° S 22:01:55 74° ESE 22:06:47 10° NNE
CZ-4C R/B 4.1 21:55:49 10° NW 22:00:18 26° W 22:00:18 26° W
Tsikada Rocket 3.9 21:59:47 10° N 22:06:11 76° W 22:09:49 28° S
CZ-3A R/B 4.0 22:07:15 22° SSE 22:08:57 27° SE 22:19:14 10° E
Centaur AC-72 2.9 22:09:06 33° WSW 22:12:31 70° S 22:18:20 10° E
COSMOS 2441 4.3 22:08:29 10° N 22:13:15 69° WNW 22:14:24 49° SW
deb Chang Zheng 4 3.9 22:09:33 10° NNE 22:13:45 61° ESE 22:15:36 31° S
ATLAS 2A CENTAUR R/B 3.9 22:05:46 14° W 22:14:19 47° NNW 22:17:32 10° ENE
H-2A R/B 2.1 22:11:40 23° SSE 22:14:27 83° ENE 22:18:55 10° N
CZ-4B R/B 4.2 22:23:00 10° ESE 22:25:29 20° ENE 22:28:01 10° NNE
MSX 4.2 22:20:07 10° N 22:25:32 46° WNW 22:27:43 32° SW
ATLAS 2A CENTAUR R/B 2.3 22:23:33 26° W 22:26:30 59° NNW 22:29:09 10° ENE
GPS 2-14 Rocket1 2.8 22:26:41 48° SW 22:27:33 61° S 22:31:40 10° E
Cosmos 1544 4.0 22:27:20 16° SSE 22:29:58 46° E 22:33:24 10° NNE
Cosmos 1743 2.6 22:30:10 43° SSW 22:31:13 65° W 22:34:58 10° N
SWAS 4.4 22:31:55 30° SSW 22:33:57 89° SE 22:38:15 10° NNE
Cosmos 1464 Rocket 4.0 22:28:52 12° S 22:34:53 88° W 22:41:17 10° N
Cosmos 1656 3.6 22:33:10 10° NNW 22:38:37 84° ENE 22:44:04 10° SSE
PSLV R/B 3.9 22:35:02 10° N 22:39:09 46° WNW 22:40:59 28° SW
Cosmos 2034 Rocket 4.3 22:34:04 10° S 22:40:11 68° E 22:46:17 10° N
Meteor 1-23 Rocket 4.2 22:35:27 10° N 22:41:12 90° WSW 22:46:59 10° S
OAO 1 4.5 22:39:11 27° SW 22:42:18 86° SSE 22:47:49 10° ENE
CENTAUR R/B 4.5 22:38:42 10° SSE 22:42:22 19° ESE 22:46:17 10° ENE
Cosmos 1484 Rocket 4.3 22:40:03 10° NNE 22:43:36 35° E 22:47:06 10° SSE
GPS 2-12 Rocket1 3.0 22:41:48 26° W 22:44:11 62° S 22:48:35 10° ESE
Landsat 5 3.7 22:42:17 19° SSW 22:44:54 43° W 22:48:46 10° NNW
PAYLOAD A 4.4 22:40:40 10° N 22:45:49 50° WNW 22:49:37 18° SW
NATO 3D Rocket 3.8 22:40:36 16° W 22:46:13 85° N 22:51:24 10° E
Cosmos 1378 Rocket 3.6 22:42:40 10° N 22:47:05 86° E 22:51:29 10° S
DELTA 2 R/B (1) 3.5 22:42:49 10° WNW 22:48:25 78° SW 22:54:01 10° SE
Hubble Space Telescope 1.3 22:46:59 26° WSW 22:48:32 36° SSW 22:52:20 10° SE
TRAILBLAZER 4.5 22:45:49 10° NNW 22:50:21 84° WSW 22:54:53 10° SSE
Cosmos 1782 Rocket 3.5 22:51:49 10° S 22:56:15 75° W 23:00:43 10° N
CZ-4B R/B 4.4 22:52:10 10° NNE 22:56:18 61° E 23:00:13 10° S
ERS-2 3.5 22:56:40 20° WSW 22:56:49 20° W 22:59:33 10° NW
SAR-Lupe-1 4.1 22:54:36 10° SSE 22:58:07 79° ENE 23:01:41 10° N
CZ-2C R/B 2.9 22:56:02 10° N 23:00:24 37° WNW 23:03:53 14° SW
Orbus 7S? 4.1 22:52:56 10° NW 23:01:01 56° WSW 23:04:38 10° SSE
SWIFT 2.3 22:58:06 15° W 23:01:33 84° S 23:05:49 10° E
CZ-3B R/B 1.9 22:58:03 14° WSW 23:04:52 80° NNW 23:07:45 10° ENE
Cosmos 1674 Rocket 4.2 23:02:43 10° NNW 23:06:40 35° W 23:10:34 10° SSW
SEDSat Delta rocket 4.4 23:02:31 10° WNW 23:08:55 58° NNE 23:14:36 10° E
Cosmos 1689 Rocket 4.1 23:06:14 10° SE 23:08:57 32° ENE 23:11:39 10° NNE
Cosmos 921 Rocket 3.0 23:05:50 10° NNW 23:10:13 86° W 23:14:30 10° S
Cosmos 2082 Rocket 3.8 23:07:53 12° WSW 23:11:01 18° WNW 23:14:50 10° NNW
ADEOS Rocket 4.5 23:08:48 10° SE 23:14:08 41° ENE 23:19:58 10° N
NOSS 3-2 (A) 3.2 23:13:39 10° SSW 23:19:01 78° WNW 23:24:50 10° NNE
ADEOS 4.4 23:16:01 10° N 23:20:37 33° WNW 23:25:14 10° SW
Okean 2 3.4 23:17:54 10° N 23:21:59 84° E 23:26:02 10° S
H-2A R/B 3.5 23:19:33 10° NNE 23:23:43 48° E 23:27:43 10° S
SL-27 R/B 2.6 23:23:08 10° SSW 23:26:41 60° WNW 23:30:11 10° N
Cosmos 1975 4.0 23:24:12 10° SW 23:27:30 24° W 23:30:47 10° NNW
Cosmos 1697 Rocket 2.7 23:22:00 10° NNW 23:27:32 65° WSW 23:33:03 10° S
Spot 2 4.4 23:23:03 10° N 23:27:53 86° WNW 23:32:55 10° SSW
Okean 2 Rocket 3.1 23:24:13 10° S 23:28:37 90° WNW 23:33:01 10° N
Delta 198 3.6 23:24:31 10° W 23:29:03 52° SSW 23:32:56 10° SE
METEOR-M 4.2 23:27:24 10° N 23:32:42 72° WNW 23:38:00 10° SSW
Cosmos 1867 3.6 23:28:06 10° SSW 23:33:29 83° WNW 23:38:57 10° NNE
SJ-12 3.9 23:30:24 10° N 23:34:30 82° WNW 23:38:35 10° SSW
H-2A R/B (2) 2.5 23:32:34 10° WNW 23:35:26 28° N 23:38:01 10° NE
GOES 2 Rocket 4.2 23:32:13 10° WNW 23:37:27 48° N 23:41:45 10° E
Cosmos 1763 Rocket 4.3 23:32:16 10° N 23:37:28 60° ENE 23:42:40 10° SSE
